Location: Bou Ouachlou
(32.7770°N, 5.6009°W)
Time: 20:11:26
(UTC+00:00)

Cosmos 1241 Rocket - Pass Details

Date: 07 June 2020
Orbit: 937 x 1011 km, 65.8° (Epoch: 11 July)

Event Time Altitude Azimuth Distance (km) Brightness Sun altitude
Exits shadow 01:58:03 66° 307° (NW) 1,017 4.5 -29.8°
Drops below altitude 10° 02:04:05 10° 21° (NNE) 2,665 7.7 -29.3°
Sets 02:06:40 0° 24° (NNE) 3,621 8.7 -29.0°
